Montrose, CO

1:32 PM MST on February 24, 2017 (GMT -0700)
Montrose Regional

Weather History for KMTJ - October, 2013

Change the Weather History Date:

Thursday, October 10, 2013

  Actual Average Record
Temperature  
Mean Temperature 49 °F 52 °F  
Max Temperature 53 °F 67 °F 82 °F (1999)
Min Temperature 44 °F 37 °F 30 °F (2001)
Degree Days  
Heating Degree Days 16 13  
Month to date heating degree days 132 108  
Since 1 July heating degree days 226 235  
Cooling Degree Days 0 0  
Month to date cooling degree days 0 0  
Year to date cooling degree days 891 643  
Moisture  
Dew Point 40 °F    
Average Humidity 77    
Maximum Humidity 100    
Minimum Humidity 54    
Precipitation  
Precipitation 0.62 in 0.05 in 0.62 in (2013)
Month to date precipitation 0.83 0.52  
Year to date precipitation 9.10 9.17  
Sea Level Pressure  
Sea Level Pressure 29.75 in    
Wind  
Wind Speed 6 mph (SW)    
Max Wind Speed 20 mph    
Max Gust Speed 25 mph    
Visibility 8 miles    
Events Rain    
T = Trace of Precipitation, MM = Missing Value Source: NWS Daily Summary

Daily Weather History Graph

Daily Weather History Graph

Search for Another Location

Airport or City:

Trip Planner

Search our weather history database for the weather conditions in past years. The results will help you decide how hot, cold, wet, or windy it might be!

Date:

Astronomy

Oct. 10, 2013 Rise Set
Actual Time 7:16 AM MDT 6:40 PM MDT
Civil Twilight 6:49 AM MDT 7:06 PM MDT
Nautical Twilight 6:18 AM MDT 7:37 PM MDT
Astronomical Twilight 5:48 AM MDT 8:08 PM MDT
Moon 1:07 PM MDT (10/10) 11:24 PM MDT (10/10)
Length of Visible Light 12h 17m
Length of Day
11h 24m
Waxing Crescent, 36% of the Moon is Illuminated
Oct 10
Waxing Crescent
Oct 11
First Quarter
Oct 18
Full
Oct 26
Last Quarter
Nov 3
New

Hourly Weather History & Observations

Time (MDT) Temp. Windchill Dew Point Humidity Pressure Visibility Wind Dir Wind Speed Gust Speed Precip Events Conditions
12:53 AM 53.1 °F - 37.9 °F 57% 29.71 in 10.0 mi South 6.9 mph - N/A   Clear
1:53 AM 51.1 °F - 37.9 °F 61% 29.73 in 10.0 mi SSE 5.8 mph - N/A   Mostly Cloudy
2:53 AM 51.1 °F - 39.0 °F 63% 29.70 in 10.0 mi East 5.8 mph - N/A   Mostly Cloudy
3:53 AM 51.1 °F - 39.9 °F 66% 29.70 in 10.0 mi SW 10.4 mph - N/A   Overcast
4:53 AM 51.1 °F - 41.0 °F 68% 29.69 in 10.0 mi Calm Calm - 0.00 in Rain Light Rain
5:53 AM 48.9 °F - 44.1 °F 83% 29.64 in 10.0 mi South 3.5 mph - 0.00 in   Clear
6:53 AM 46.9 °F - 45.0 °F 93% 29.69 in 6.0 mi NNW 9.2 mph - 0.03 in Rain Rain
7:53 AM 46.9 °F - 46.0 °F 97% 29.70 in 10.0 mi West 6.9 mph - 0.00 in Rain Light Rain
8:16 AM 46.4 °F - 46.4 °F 100% 29.85 in 2.5 mi Calm Calm - 0.07 in Rain Rain
8:25 AM 46.4 °F 45.2 °F 44.6 °F 93% 29.85 in 4.0 mi NW 3.5 mph - 0.08 in Rain Rain
8:33 AM 46.4 °F 45.2 °F 46.4 °F 100% 29.84 in 2.5 mi North 3.5 mph - 0.12 in Rain Heavy Rain
8:53 AM 46.0 °F 43.9 °F 46.0 °F 100% 29.70 in 3.0 mi NNE 4.6 mph - 0.19 in Rain Rain
9:53 AM 45.0 °F 40.1 °F 45.0 °F 100% 29.68 in 5.0 mi NNW 9.2 mph - 0.11 in Rain Rain
10:30 AM 44.6 °F 39.2 °F 44.6 °F 100% 29.83 in 2.5 mi WNW 10.4 mph - 0.09 in Rain Heavy Rain
10:45 AM 44.6 °F 41.4 °F 44.6 °F 100% 29.83 in 3.0 mi NW 5.8 mph - 0.15 in Rain Rain
10:53 AM 45.0 °F 41.8 °F 44.1 °F 97% 29.70 in 3.0 mi NW 5.8 mph - 0.18 in Rain Heavy Rain
10:55 AM 44.6 °F 40.7 °F 44.6 °F 100% 29.84 in 2.5 mi NW 6.9 mph - 0.01 in Rain Heavy Rain
11:09 AM 44.6 °F 42.2 °F 44.6 °F 100% 29.85 in 3.0 mi NNW 4.6 mph - 0.06 in Rain Rain
11:53 AM 45.0 °F - 43.0 °F 93% 29.74 in 9.0 mi Calm Calm - 0.11 in Rain Light Rain
12:53 PM 46.9 °F - 39.9 °F 77% 29.73 in 10.0 mi SE 4.6 mph - 0.00 in   Overcast
1:53 PM 46.9 °F - 39.0 °F 74% 29.72 in 10.0 mi ESE 6.9 mph - N/A   Overcast
2:53 PM 48.0 °F - 39.0 °F 71% 29.68 in 10.0 mi SE 11.5 mph - N/A   Clear
3:53 PM 50.0 °F - 37.9 °F 63% 29.66 in 10.0 mi SE 9.2 mph - N/A   Clear
4:53 PM 50.0 °F - 36.0 °F 59% 29.66 in 10.0 mi SSE 3.5 mph - N/A   Clear
5:53 PM 50.0 °F - 35.1 °F 57% 29.69 in 10.0 mi WSW 4.6 mph - N/A   Scattered Clouds
6:53 PM 46.0 °F 42.5 °F 34.0 °F 63% 29.73 in 10.0 mi West 6.9 mph - N/A   Mostly Cloudy
7:53 PM 46.0 °F 40.2 °F 32.0 °F 58% 29.75 in 10.0 mi SSW 12.7 mph 19.6 mph N/A   Overcast
8:53 PM 45.0 °F 39.7 °F 33.1 °F 63% 29.80 in 10.0 mi SW 10.4 mph - N/A   Overcast
9:53 PM 46.0 °F 42.5 °F 33.1 °F 61% 29.83 in 10.0 mi SSW 6.9 mph - N/A   Overcast
10:53 PM 45.0 °F 42.6 °F 33.1 °F 63% 29.83 in 10.0 mi South 4.6 mph - N/A   Overcast
11:53 PM 46.0 °F 43.1 °F 33.1 °F 61% 29.83 in 10.0 mi South 5.8 mph - N/A   Overcast